Year,Month,Day,Hour,Minute,Value (Times are PST for temperature in C)
2007,05,30,00,00,13.10
2007,05,30,00,01,13.10
2007,05,30,00,02,13.10
2007,05,30,00,03,13.10
2007,05,30,00,04,13.10
2007,05,30,00,05,13.10
2007,05,30,00,06,13.10
2007,05,30,00,07,13.10
2007,05,30,00,08,13.10
2007,05,30,00,09,13.10
2007,05,30,00,10,13.00
2007,05,30,00,11,13.00
2007,05,30,00,12,13.00
2007,05,30,00,13,13.00
2007,05,30,00,14,13.00
2007,05,30,00,15,12.90
2007,05,30,00,16,12.90
2007,05,30,00,17,12.90
2007,05,30,00,18,12.90
2007,05,30,00,19,12.90
2007,05,30,00,20,12.80
2007,05,30,00,21,12.80
2007,05,30,00,22,12.80
2007,05,30,00,23,12.80
2007,05,30,00,24,12.80
2007,05,30,00,25,12.80
2007,05,30,00,26,12.80
2007,05,30,00,27,12.70
2007,05,30,00,28,12.70
2007,05,30,00,29,12.70
2007,05,30,00,30,12.70
2007,05,30,00,31,12.70
2007,05,30,00,32,12.60
2007,05,30,00,33,12.60
2007,05,30,00,34,12.60
2007,05,30,00,35,12.60
2007,05,30,00,36,12.50
2007,05,30,00,37,12.50
2007,05,30,00,38,12.50
2007,05,30,00,39,12.50
2007,05,30,00,40,12.40
2007,05,30,00,41,12.40
2007,05,30,00,42,12.40
2007,05,30,00,43,12.30
2007,05,30,00,44,12.30
2007,05,30,00,45,12.30
2007,05,30,00,46,12.30
2007,05,30,00,47,12.30
2007,05,30,00,48,12.30
2007,05,30,00,49,12.30
2007,05,30,00,50,12.20
2007,05,30,00,51,12.20
2007,05,30,00,52,12.20
2007,05,30,00,53,12.20
2007,05,30,00,54,12.10
2007,05,30,00,55,12.10
2007,05,30,00,56,12.10
2007,05,30,00,57,12.10
2007,05,30,00,58,12.10
2007,05,30,00,59,12.00
2007,05,30,01,00,12.00
2007,05,30,01,01,12.00
2007,05,30,01,02,12.00
2007,05,30,01,03,11.90
2007,05,30,01,04,11.90
2007,05,30,01,05,11.90
2007,05,30,01,06,11.90
2007,05,30,01,07,11.90
2007,05,30,01,08,11.90
2007,05,30,01,09,11.80
2007,05,30,01,10,11.80
2007,05,30,01,11,11.80
2007,05,30,01,12,11.80
2007,05,30,01,13,11.80
2007,05,30,01,14,11.80
2007,05,30,01,15,11.80
2007,05,30,01,16,11.80
2007,05,30,01,17,11.90
2007,05,30,01,18,11.90
2007,05,30,01,19,11.90
2007,05,30,01,20,11.90
2007,05,30,01,21,12.00
2007,05,30,01,22,12.00
2007,05,30,01,23,12.00
2007,05,30,01,24,12.00
2007,05,30,01,25,12.10
2007,05,30,01,26,12.10
2007,05,30,01,27,12.10
2007,05,30,01,28,12.10
2007,05,30,01,29,12.10
2007,05,30,01,30,12.10
2007,05,30,01,31,12.10
2007,05,30,01,32,12.20
2007,05,30,01,33,12.10
2007,05,30,01,34,12.10
2007,05,30,01,35,12.10
2007,05,30,01,36,12.10
2007,05,30,01,37,12.10
2007,05,30,01,38,12.10
2007,05,30,01,39,12.10
2007,05,30,01,40,12.10
2007,05,30,01,41,12.10
2007,05,30,01,42,12.10
2007,05,30,01,43,12.10
2007,05,30,01,44,12.00
2007,05,30,01,45,12.00
2007,05,30,01,46,12.00
2007,05,30,01,47,12.00
2007,05,30,01,48,12.00
2007,05,30,01,49,12.00
2007,05,30,01,50,12.00
2007,05,30,01,51,11.90
2007,05,30,01,52,11.90
2007,05,30,01,53,11.90
2007,05,30,01,54,11.90
2007,05,30,01,55,11.90
2007,05,30,01,56,11.90
2007,05,30,01,57,11.90
2007,05,30,01,58,11.90
2007,05,30,01,59,11.90
2007,05,30,02,00,11.90
2007,05,30,02,01,11.80
2007,05,30,02,02,11.80
2007,05,30,02,03,11.80
2007,05,30,02,04,11.80
2007,05,30,02,05,11.80
2007,05,30,02,06,11.80
2007,05,30,02,07,11.80
2007,05,30,02,08,11.80
2007,05,30,02,09,11.80
2007,05,30,02,10,11.80
2007,05,30,02,11,11.80
2007,05,30,02,12,11.80
2007,05,30,02,13,11.80
2007,05,30,02,14,11.80
2007,05,30,02,15,11.80
2007,05,30,02,16,11.80
2007,05,30,02,17,11.80
2007,05,30,02,18,11.80
2007,05,30,02,19,11.80
2007,05,30,02,20,11.80
2007,05,30,02,21,11.80
2007,05,30,02,22,11.80
2007,05,30,02,23,11.80
2007,05,30,02,24,11.80
2007,05,30,02,25,11.80
2007,05,30,02,26,11.80
2007,05,30,02,27,11.80
2007,05,30,02,28,11.80
2007,05,30,02,29,11.80
2007,05,30,02,30,11.80
2007,05,30,02,31,11.80
2007,05,30,02,32,11.80
2007,05,30,02,33,11.80
2007,05,30,02,34,11.80
2007,05,30,02,35,11.80
2007,05,30,02,36,11.80
2007,05,30,02,37,11.80
2007,05,30,02,38,11.80
2007,05,30,02,39,11.80
2007,05,30,02,40,11.80
2007,05,30,02,41,11.70
2007,05,30,02,42,11.70
2007,05,30,02,43,11.70
2007,05,30,02,44,11.70
2007,05,30,02,45,11.70
2007,05,30,02,46,11.70
2007,05,30,02,47,11.60
2007,05,30,02,48,11.60
2007,05,30,02,49,11.60
2007,05,30,02,50,11.60
2007,05,30,02,51,11.60
2007,05,30,02,52,11.60
2007,05,30,02,53,11.60
2007,05,30,02,54,11.60
2007,05,30,02,55,11.60
2007,05,30,02,56,11.60
2007,05,30,02,57,11.60
2007,05,30,02,58,11.60
2007,05,30,02,59,11.60
2007,05,30,03,00,11.60
2007,05,30,03,01,11.60
2007,05,30,03,02,11.60
2007,05,30,03,03,11.60
2007,05,30,03,04,11.50
2007,05,30,03,05,11.40
2007,05,30,03,06,11.40
2007,05,30,03,07,11.40
2007,05,30,03,08,11.40
2007,05,30,03,09,11.40
2007,05,30,03,10,11.40
2007,05,30,03,11,11.40
2007,05,30,03,12,11.40
2007,05,30,03,13,11.40
2007,05,30,03,14,11.40
2007,05,30,03,15,11.40
2007,05,30,03,16,11.40
2007,05,30,03,17,11.40
2007,05,30,03,18,11.40
2007,05,30,03,19,11.40
2007,05,30,03,20,11.40
2007,05,30,03,21,11.40
2007,05,30,03,22,11.40
2007,05,30,03,23,11.40
2007,05,30,03,24,11.40
2007,05,30,03,25,11.40
2007,05,30,03,26,11.40
2007,05,30,03,27,11.40
2007,05,30,03,28,11.40
2007,05,30,03,29,11.40
2007,05,30,03,30,11.40
2007,05,30,03,31,11.40
2007,05,30,03,32,11.40
2007,05,30,03,33,11.40
2007,05,30,03,34,11.30
2007,05,30,03,35,11.30
2007,05,30,03,36,11.30
2007,05,30,03,37,11.30
2007,05,30,03,38,11.30
2007,05,30,03,39,11.30
2007,05,30,03,40,11.30
2007,05,30,03,41,11.20
2007,05,30,03,42,11.20
2007,05,30,03,43,11.20
2007,05,30,03,44,11.20
2007,05,30,03,45,11.10
2007,05,30,03,46,11.10
2007,05,30,03,47,11.10
2007,05,30,03,48,11.10
2007,05,30,03,49,11.10
2007,05,30,03,50,11.10
2007,05,30,03,51,11.10
2007,05,30,03,52,11.00
2007,05,30,03,53,10.90
2007,05,30,03,54,10.90
2007,05,30,03,55,10.90
2007,05,30,03,56,10.90
2007,05,30,03,57,10.90
2007,05,30,03,58,10.90
2007,05,30,03,59,10.90
2007,05,30,04,00,10.90
2007,05,30,04,01,10.90
2007,05,30,04,02,10.80
2007,05,30,04,03,10.80
2007,05,30,04,04,10.80
2007,05,30,04,05,10.80
2007,05,30,04,06,10.80
2007,05,30,04,07,10.80
2007,05,30,04,08,10.80
2007,05,30,04,09,10.70
2007,05,30,04,10,10.70
2007,05,30,04,11,10.70
2007,05,30,04,12,10.70
2007,05,30,04,13,10.60
2007,05,30,04,14,10.60
2007,05,30,04,15,10.60
2007,05,30,04,16,10.60
2007,05,30,04,17,10.60
2007,05,30,04,18,10.60
2007,05,30,04,19,10.60
2007,05,30,04,20,10.60
2007,05,30,04,21,10.60
2007,05,30,04,22,10.60
2007,05,30,04,23,10.60
2007,05,30,04,24,10.60
2007,05,30,04,25,10.60
2007,05,30,04,26,10.60
2007,05,30,04,27,10.60
2007,05,30,04,28,10.60
2007,05,30,04,29,10.60
2007,05,30,04,30,10.60
2007,05,30,04,31,10.60
2007,05,30,04,32,10.60
2007,05,30,04,33,10.60
2007,05,30,04,34,10.50
2007,05,30,04,35,10.40
2007,05,30,04,36,10.40
2007,05,30,04,37,10.40
2007,05,30,04,38,10.40
2007,05,30,04,39,10.40
2007,05,30,04,40,10.40
2007,05,30,04,41,10.40
2007,05,30,04,42,10.40
2007,05,30,04,43,10.40
2007,05,30,04,44,10.40
2007,05,30,04,45,10.40
2007,05,30,04,46,10.40
2007,05,30,04,47,10.40
2007,05,30,04,48,10.40
2007,05,30,04,49,10.40
2007,05,30,04,50,10.40
2007,05,30,04,51,10.40
2007,05,30,04,52,10.40
2007,05,30,04,53,10.40
2007,05,30,04,54,10.40
2007,05,30,04,55,10.30
2007,05,30,04,56,10.30
2007,05,30,04,57,10.30
2007,05,30,04,58,10.30
2007,05,30,04,59,10.30
2007,05,30,05,00,10.30
2007,05,30,05,01,10.30
2007,05,30,05,02,10.30
2007,05,30,05,03,10.30
2007,05,30,05,04,10.30
2007,05,30,05,05,10.30
2007,05,30,05,06,10.20
2007,05,30,05,07,10.20
2007,05,30,05,08,10.20
2007,05,30,05,09,10.20
2007,05,30,05,10,10.20
2007,05,30,05,11,10.20
2007,05,30,05,12,10.10
2007,05,30,05,13,10.10
2007,05,30,05,14,10.10
2007,05,30,05,15,10.10
2007,05,30,05,16,10.10
2007,05,30,05,17,10.10
2007,05,30,05,18,10.10
2007,05,30,05,19,10.10
2007,05,30,05,20,10.10
2007,05,30,05,21,10.00
2007,05,30,05,22,9.90
2007,05,30,05,23,9.90
2007,05,30,05,24,9.90
2007,05,30,05,25,9.90
2007,05,30,05,26,9.90
2007,05,30,05,27,9.90
2007,05,30,05,28,9.90
2007,05,30,05,29,9.90
2007,05,30,05,30,9.90
2007,05,30,05,31,9.90
2007,05,30,05,32,9.90
2007,05,30,05,33,9.90
2007,05,30,05,34,9.90
2007,05,30,05,35,9.90
2007,05,30,05,36,9.90
2007,05,30,05,37,9.90
2007,05,30,05,38,9.90
2007,05,30,05,39,9.90
2007,05,30,05,40,9.90
2007,05,30,05,41,9.90
2007,05,30,05,42,9.90
2007,05,30,05,43,9.90
2007,05,30,05,44,9.90
2007,05,30,05,45,9.80
2007,05,30,05,46,9.80
2007,05,30,05,47,9.80
2007,05,30,05,48,9.80
2007,05,30,05,49,9.80
2007,05,30,05,50,9.80
2007,05,30,05,51,9.80
2007,05,30,05,52,9.80
2007,05,30,05,53,9.80
2007,05,30,05,54,9.80
2007,05,30,05,55,9.80
2007,05,30,05,56,9.90
2007,05,30,05,57,9.90
2007,05,30,05,58,9.90
2007,05,30,05,59,9.90
2007,05,30,06,00,9.90
2007,05,30,06,01,9.90
2007,05,30,06,02,9.90
2007,05,30,06,03,9.90
2007,05,30,06,04,9.90
2007,05,30,06,05,9.90
2007,05,30,06,06,9.90
2007,05,30,06,07,9.90
2007,05,30,06,08,9.90
2007,05,30,06,09,9.90
2007,05,30,06,10,9.90
2007,05,30,06,11,9.90
2007,05,30,06,12,9.90
2007,05,30,06,13,10.10
2007,05,30,06,14,10.10
2007,05,30,06,15,10.10
2007,05,30,06,16,10.10
2007,05,30,06,17,10.10
2007,05,30,06,18,10.10
2007,05,30,06,19,10.20
2007,05,30,06,20,10.20
2007,05,30,06,21,10.30
2007,05,30,06,22,10.30
2007,05,30,06,23,10.40
2007,05,30,06,24,10.40
2007,05,30,06,25,10.50
2007,05,30,06,26,10.60
2007,05,30,06,27,10.60
2007,05,30,06,28,10.70
2007,05,30,06,29,10.70
2007,05,30,06,30,10.80
2007,05,30,06,31,10.90
2007,05,30,06,32,10.90
2007,05,30,06,33,11.00
2007,05,30,06,34,11.10
2007,05,30,06,35,11.20
2007,05,30,06,36,11.30
2007,05,30,06,37,11.40
2007,05,30,06,38,11.50
2007,05,30,06,39,11.60
2007,05,30,06,40,11.60
2007,05,30,06,41,11.70
2007,05,30,06,42,11.70
2007,05,30,06,43,11.80
2007,05,30,06,44,11.80
2007,05,30,06,45,11.90
2007,05,30,06,46,11.90
2007,05,30,06,47,12.00
2007,05,30,06,48,12.00
2007,05,30,06,49,12.10
2007,05,30,06,50,12.10
2007,05,30,06,51,12.20
2007,05,30,06,52,12.30
2007,05,30,06,53,12.30
2007,05,30,06,54,12.40
2007,05,30,06,55,12.50
2007,05,30,06,56,12.60
2007,05,30,06,57,12.60
2007,05,30,06,58,12.70
2007,05,30,06,59,12.80
2007,05,30,07,00,12.80
2007,05,30,07,01,12.90
2007,05,30,07,02,13.00
2007,05,30,07,03,13.00
2007,05,30,07,04,13.10
2007,05,30,07,05,13.10
2007,05,30,07,06,13.20
2007,05,30,07,07,13.30
2007,05,30,07,08,13.30
2007,05,30,07,09,13.40
2007,05,30,07,10,13.50
2007,05,30,07,11,13.60
2007,05,30,07,12,13.70
2007,05,30,07,13,13.70
2007,05,30,07,14,13.80
2007,05,30,07,15,13.90
2007,05,30,07,16,14.00
2007,05,30,07,17,14.10
2007,05,30,07,18,14.20
2007,05,30,07,19,14.20
2007,05,30,07,20,14.30
2007,05,30,07,21,14.40
2007,05,30,07,22,14.50
2007,05,30,07,23,14.60
2007,05,30,07,24,14.70
2007,05,30,07,25,14.70
2007,05,30,07,26,14.80
2007,05,30,07,27,14.80
2007,05,30,07,28,14.90
2007,05,30,07,29,15.00
2007,05,30,07,30,15.10
2007,05,30,07,31,15.10
2007,05,30,07,32,15.20
2007,05,30,07,33,15.30
2007,05,30,07,34,15.40
2007,05,30,07,35,15.40
2007,05,30,07,36,15.50
2007,05,30,07,37,15.60
2007,05,30,07,38,15.60
2007,05,30,07,39,15.70
2007,05,30,07,40,15.80
2007,05,30,07,41,15.90
2007,05,30,07,42,16.00
2007,05,30,07,43,16.10
2007,05,30,07,44,16.20
2007,05,30,07,45,16.30
2007,05,30,07,46,16.40
2007,05,30,07,47,16.40
2007,05,30,07,48,16.50
2007,05,30,07,49,16.60
2007,05,30,07,50,16.70
2007,05,30,07,51,16.70
2007,05,30,07,52,16.80
2007,05,30,07,53,16.90
2007,05,30,07,54,16.90
2007,05,30,07,55,17.00
2007,05,30,07,56,17.00
2007,05,30,07,57,17.10
2007,05,30,07,58,17.20
2007,05,30,07,59,17.30
2007,05,30,08,00,17.40
2007,05,30,08,01,17.60
2007,05,30,08,02,17.70
2007,05,30,08,03,17.80
2007,05,30,08,04,17.90
2007,05,30,08,05,17.90
2007,05,30,08,06,18.00
2007,05,30,08,07,18.20
2007,05,30,08,08,18.20
2007,05,30,08,09,18.30
2007,05,30,08,10,18.40
2007,05,30,08,11,18.50
2007,05,30,08,12,18.50
2007,05,30,08,13,18.60
2007,05,30,08,14,18.70
2007,05,30,08,15,18.80
2007,05,30,08,16,18.80
2007,05,30,08,17,18.90
2007,05,30,08,18,19.00
2007,05,30,08,19,19.10
2007,05,30,08,20,19.10
2007,05,30,08,21,19.20
2007,05,30,08,22,19.30
2007,05,30,08,23,19.40
2007,05,30,08,24,19.40
2007,05,30,08,25,19.50
2007,05,30,08,26,19.60
2007,05,30,08,27,19.60
2007,05,30,08,28,19.70
2007,05,30,08,29,19.80
2007,05,30,08,30,19.90
2007,05,30,08,31,19.90
2007,05,30,08,32,19.90
2007,05,30,08,33,19.90
2007,05,30,08,34,19.90
2007,05,30,08,35,19.90
2007,05,30,08,36,20.00
2007,05,30,08,37,20.10
2007,05,30,08,38,20.00
2007,05,30,08,39,19.90
2007,05,30,08,40,19.90
2007,05,30,08,41,19.90
2007,05,30,08,42,19.90
2007,05,30,08,43,19.90
2007,05,30,08,44,19.90
2007,05,30,08,45,19.90
2007,05,30,08,46,19.90
2007,05,30,08,47,19.90
2007,05,30,08,48,20.00
2007,05,30,08,49,20.10
2007,05,30,08,50,20.20
2007,05,30,08,51,20.20
2007,05,30,08,52,20.20
2007,05,30,08,53,20.20
2007,05,30,08,54,20.30
2007,05,30,08,55,20.30
2007,05,30,08,56,20.40
2007,05,30,08,57,20.40
2007,05,30,08,58,20.40
2007,05,30,08,59,20.40
2007,05,30,09,00,20.40
2007,05,30,09,01,20.30
2007,05,30,09,02,20.30
2007,05,30,09,03,20.30
2007,05,30,09,04,20.30
2007,05,30,09,05,20.40
2007,05,30,09,06,20.40
2007,05,30,09,07,20.50
2007,05,30,09,08,20.50
2007,05,30,09,09,20.60
2007,05,30,09,10,20.70
2007,05,30,09,11,20.80
2007,05,30,09,12,20.80
2007,05,30,09,13,20.90
2007,05,30,09,14,21.00
2007,05,30,09,15,21.10
2007,05,30,09,16,21.10
2007,05,30,09,17,21.20
2007,05,30,09,18,21.10
2007,05,30,09,19,21.10
2007,05,30,09,20,21.00
2007,05,30,09,21,21.00
2007,05,30,09,22,21.10
2007,05,30,09,23,21.10
2007,05,30,09,24,21.10
2007,05,30,09,25,21.10
2007,05,30,09,26,21.10
2007,05,30,09,27,21.10
2007,05,30,09,28,21.10
2007,05,30,09,29,21.10
2007,05,30,09,30,21.10
2007,05,30,09,31,21.10
2007,05,30,09,32,21.10
2007,05,30,09,33,21.20
2007,05,30,09,34,21.20
2007,05,30,09,35,21.20
2007,05,30,09,36,21.00
2007,05,30,09,37,21.00
2007,05,30,09,38,21.10
2007,05,30,09,39,21.20
2007,05,30,09,40,21.30
2007,05,30,09,41,21.40
2007,05,30,09,42,21.40
2007,05,30,09,43,21.40
2007,05,30,09,44,21.30
2007,05,30,09,45,21.30
2007,05,30,09,46,21.00
2007,05,30,09,47,20.90
2007,05,30,09,48,20.80
2007,05,30,09,49,20.70
2007,05,30,09,50,20.80
2007,05,30,09,51,20.80
2007,05,30,09,52,20.80
2007,05,30,09,53,20.70
2007,05,30,09,54,20.80
2007,05,30,09,55,20.80
2007,05,30,09,56,20.90
2007,05,30,09,57,21.00
2007,05,30,09,58,21.10
2007,05,30,09,59,21.20
2007,05,30,10,00,21.30
2007,05,30,10,01,21.50
2007,05,30,10,02,21.60
2007,05,30,10,03,21.60
2007,05,30,10,04,21.60
2007,05,30,10,05,21.70
2007,05,30,10,06,21.60
2007,05,30,10,07,21.50
2007,05,30,10,08,21.60
2007,05,30,10,09,21.60
2007,05,30,10,10,21.60
2007,05,30,10,11,21.60
2007,05,30,10,12,21.60
2007,05,30,10,13,21.50
2007,05,30,10,14,21.30
2007,05,30,10,15,21.30
2007,05,30,10,16,21.30
2007,05,30,10,17,21.20
2007,05,30,10,18,21.20
2007,05,30,10,19,21.20
2007,05,30,10,20,21.30
2007,05,30,10,21,21.30
2007,05,30,10,22,21.30
2007,05,30,10,23,21.30
2007,05,30,10,24,21.30
2007,05,30,10,25,21.30
2007,05,30,10,26,21.40
2007,05,30,10,27,21.50
2007,05,30,10,28,21.60
2007,05,30,10,29,21.70
2007,05,30,10,30,21.90
2007,05,30,10,31,22.00
2007,05,30,10,32,22.00
2007,05,30,10,33,22.10
2007,05,30,10,34,22.10
2007,05,30,10,35,22.20
2007,05,30,10,36,22.20
2007,05,30,10,37,22.30
2007,05,30,10,38,22.30
2007,05,30,10,39,22.40
2007,05,30,10,40,22.30
2007,05,30,10,41,22.30
2007,05,30,10,42,22.30
2007,05,30,10,43,22.10
2007,05,30,10,44,21.70
2007,05,30,10,45,21.40
2007,05,30,10,46,21.20
2007,05,30,10,47,21.00
2007,05,30,10,48,21.00
2007,05,30,10,49,21.00
2007,05,30,10,50,21.10
2007,05,30,10,51,21.10
2007,05,30,10,52,21.10
2007,05,30,10,53,21.20
2007,05,30,10,54,21.20
2007,05,30,10,55,21.10
2007,05,30,10,56,21.10
2007,05,30,10,57,21.20
2007,05,30,10,58,21.30
2007,05,30,10,59,21.30
2007,05,30,11,00,21.10
2007,05,30,11,01,20.90
2007,05,30,11,02,20.90
2007,05,30,11,03,20.90
2007,05,30,11,04,20.90
2007,05,30,11,05,20.90
2007,05,30,11,06,20.90
2007,05,30,11,07,20.90
2007,05,30,11,08,21.00
2007,05,30,11,09,21.10
2007,05,30,11,10,21.30
2007,05,30,11,11,21.50
2007,05,30,11,12,21.60
2007,05,30,11,13,21.60
2007,05,30,11,14,21.70
2007,05,30,11,15,21.60
2007,05,30,11,16,21.40
2007,05,30,11,17,21.30
2007,05,30,11,18,21.30
2007,05,30,11,19,21.30
2007,05,30,11,20,21.40
2007,05,30,11,21,21.60
2007,05,30,11,22,21.40
2007,05,30,11,23,21.30
2007,05,30,11,24,21.30
2007,05,30,11,25,21.10
2007,05,30,11,26,21.00
2007,05,30,11,27,21.10
2007,05,30,11,28,21.10
2007,05,30,11,29,21.10
2007,05,30,11,30,21.10
2007,05,30,11,31,21.00
2007,05,30,11,32,21.00
2007,05,30,11,33,21.10
2007,05,30,11,34,21.10
2007,05,30,11,35,21.00
2007,05,30,11,36,20.80
2007,05,30,11,37,20.70
2007,05,30,11,38,20.80
2007,05,30,11,39,20.80
2007,05,30,11,40,20.80
2007,05,30,11,41,20.80
2007,05,30,11,42,20.70
2007,05,30,11,43,20.60
2007,05,30,11,44,20.60
2007,05,30,11,45,20.50
2007,05,30,11,46,20.50
2007,05,30,11,47,20.60
2007,05,30,11,48,20.70
2007,05,30,11,49,20.80
2007,05,30,11,50,20.90
2007,05,30,11,51,20.90
2007,05,30,11,52,20.80
2007,05,30,11,53,20.70
2007,05,30,11,54,20.70
2007,05,30,11,55,20.60
2007,05,30,11,56,20.60
2007,05,30,11,57,20.50
2007,05,30,11,58,20.50
2007,05,30,11,59,20.50
2007,05,30,12,00,20.60
2007,05,30,12,01,20.70
2007,05,30,12,02,20.80
2007,05,30,12,03,20.80
2007,05,30,12,04,20.90
2007,05,30,12,05,20.80
2007,05,30,12,06,20.70
2007,05,30,12,07,20.70
2007,05,30,12,08,20.80
2007,05,30,12,09,20.80
2007,05,30,12,10,20.90
2007,05,30,12,11,21.00
2007,05,30,12,12,20.90
2007,05,30,12,13,21.00
2007,05,30,12,14,21.00
2007,05,30,12,15,21.00
2007,05,30,12,16,21.20
2007,05,30,12,17,21.40
2007,05,30,12,18,21.60
2007,05,30,12,19,21.70
2007,05,30,12,20,21.80
2007,05,30,12,21,21.80
2007,05,30,12,22,21.70
2007,05,30,12,23,21.70
2007,05,30,12,24,21.70
2007,05,30,12,25,21.70
2007,05,30,12,26,21.90
2007,05,30,12,27,22.00
2007,05,30,12,28,22.00
2007,05,30,12,29,21.90
2007,05,30,12,30,21.90
2007,05,30,12,31,21.90
2007,05,30,12,32,21.90
2007,05,30,12,33,21.80
2007,05,30,12,34,21.70
2007,05,30,12,35,21.60
2007,05,30,12,36,21.60
2007,05,30,12,37,21.60
2007,05,30,12,38,21.80
2007,05,30,12,39,21.90
2007,05,30,12,40,21.90
2007,05,30,12,41,22.00
2007,05,30,12,42,22.20
2007,05,30,12,43,22.20
2007,05,30,12,44,22.20
2007,05,30,12,45,22.30
2007,05,30,12,46,22.30
2007,05,30,12,47,22.40
2007,05,30,12,48,22.40
2007,05,30,12,49,22.20
2007,05,30,12,50,22.00
2007,05,30,12,51,22.00
2007,05,30,12,52,22.00
2007,05,30,12,53,22.00
2007,05,30,12,54,22.00
2007,05,30,12,55,22.10
2007,05,30,12,56,22.20
2007,05,30,12,57,22.30
2007,05,30,12,58,22.30
2007,05,30,12,59,22.40
2007,05,30,13,00,22.30
2007,05,30,13,01,22.40
2007,05,30,13,02,22.30
2007,05,30,13,03,22.10
2007,05,30,13,04,22.00
2007,05,30,13,05,21.80
2007,05,30,13,06,21.80
2007,05,30,13,07,21.80
2007,05,30,13,08,21.80
2007,05,30,13,09,21.80
2007,05,30,13,10,21.80
2007,05,30,13,11,21.70
2007,05,30,13,12,21.70
2007,05,30,13,13,21.80
2007,05,30,13,14,21.90
2007,05,30,13,15,22.00
2007,05,30,13,16,22.10
2007,05,30,13,17,22.20
2007,05,30,13,18,22.20
2007,05,30,13,19,22.30
2007,05,30,13,20,22.50
2007,05,30,13,21,22.40
2007,05,30,13,22,22.30
2007,05,30,13,23,22.20
2007,05,30,13,24,22.20
2007,05,30,13,25,22.20
2007,05,30,13,26,22.30
2007,05,30,13,27,22.60
2007,05,30,13,28,22.70
2007,05,30,13,29,22.90
2007,05,30,13,30,22.80
2007,05,30,13,31,22.70
2007,05,30,13,32,22.60
2007,05,30,13,33,22.50
2007,05,30,13,34,22.50
2007,05,30,13,35,22.50
2007,05,30,13,36,22.50
2007,05,30,13,37,22.50
2007,05,30,13,38,22.30
2007,05,30,13,39,22.20
2007,05,30,13,40,22.30
2007,05,30,13,41,22.30
2007,05,30,13,42,22.40
2007,05,30,13,43,22.60
2007,05,30,13,44,22.70
2007,05,30,13,45,22.80
2007,05,30,13,46,23.00
2007,05,30,13,47,23.10
2007,05,30,13,48,23.20
2007,05,30,13,49,23.30
2007,05,30,13,50,23.40
2007,05,30,13,51,23.50
2007,05,30,13,52,23.60
2007,05,30,13,53,23.40
2007,05,30,13,54,23.40
2007,05,30,13,55,23.30
2007,05,30,13,56,23.30
2007,05,30,13,57,23.30
2007,05,30,13,58,23.20
2007,05,30,13,59,23.20
2007,05,30,14,00,23.10
2007,05,30,14,01,23.10
2007,05,30,14,02,22.90
2007,05,30,14,03,23.10
2007,05,30,14,04,23.20
2007,05,30,14,05,23.40
2007,05,30,14,06,23.60
2007,05,30,14,07,23.60
2007,05,30,14,08,23.40
2007,05,30,14,09,23.30
2007,05,30,14,10,23.10
2007,05,30,14,11,22.90
2007,05,30,14,12,22.90
2007,05,30,14,13,22.80
2007,05,30,14,14,22.70
2007,05,30,14,15,22.70
2007,05,30,14,16,22.70
2007,05,30,14,17,22.80
2007,05,30,14,18,22.90
2007,05,30,14,19,23.10
2007,05,30,14,20,23.20
2007,05,30,14,21,23.20
2007,05,30,14,22,23.10
2007,05,30,14,23,23.10
2007,05,30,14,24,23.00
2007,05,30,14,25,22.90
2007,05,30,14,26,22.90
2007,05,30,14,27,22.90
2007,05,30,14,28,22.90
2007,05,30,14,29,22.90
2007,05,30,14,30,22.90
2007,05,30,14,31,22.90
2007,05,30,14,32,22.90
2007,05,30,14,33,22.90
2007,05,30,14,34,22.90
2007,05,30,14,35,22.90
2007,05,30,14,36,22.90
2007,05,30,14,37,22.90
2007,05,30,14,38,23.00
2007,05,30,14,39,23.10
2007,05,30,14,40,23.20
2007,05,30,14,41,23.30
2007,05,30,14,42,23.40
2007,05,30,14,43,23.60
2007,05,30,14,44,23.60
2007,05,30,14,45,23.50
2007,05,30,14,46,23.40
2007,05,30,14,47,23.40
2007,05,30,14,48,23.40
2007,05,30,14,49,23.40
2007,05,30,14,50,23.30
2007,05,30,14,51,23.40
2007,05,30,14,52,23.40
2007,05,30,14,53,23.60
2007,05,30,14,54,23.60
2007,05,30,14,55,23.60
2007,05,30,14,56,23.60
2007,05,30,14,57,23.40
2007,05,30,14,58,23.40
2007,05,30,14,59,23.30
2007,05,30,15,00,23.30
2007,05,30,15,01,23.30
2007,05,30,15,02,23.40
2007,05,30,15,03,23.30
2007,05,30,15,04,23.30
2007,05,30,15,05,23.40
2007,05,30,15,06,23.50
2007,05,30,15,07,23.40
2007,05,30,15,08,23.30
2007,05,30,15,09,23.30
2007,05,30,15,10,23.20
2007,05,30,15,11,23.20
2007,05,30,15,12,23.20
2007,05,30,15,13,23.30
2007,05,30,15,14,23.50
2007,05,30,15,15,23.70
2007,05,30,15,16,23.90
2007,05,30,15,17,24.10
2007,05,30,15,18,24.20
2007,05,30,15,19,24.40
2007,05,30,15,20,24.40
2007,05,30,15,21,24.40
2007,05,30,15,22,24.40
2007,05,30,15,23,24.40
2007,05,30,15,24,24.30
2007,05,30,15,25,24.10
2007,05,30,15,26,24.00
2007,05,30,15,27,23.80
2007,05,30,15,28,23.70
2007,05,30,15,29,23.60
2007,05,30,15,30,23.40
2007,05,30,15,31,23.30
2007,05,30,15,32,23.40
2007,05,30,15,33,23.50
2007,05,30,15,34,23.60
2007,05,30,15,35,23.70
2007,05,30,15,36,23.70
2007,05,30,15,37,23.70
2007,05,30,15,38,23.80
2007,05,30,15,39,23.90
2007,05,30,15,40,23.80
2007,05,30,15,41,23.70
2007,05,30,15,42,23.70
2007,05,30,15,43,23.70
2007,05,30,15,44,23.70
2007,05,30,15,45,23.70
2007,05,30,15,46,23.70
2007,05,30,15,47,23.70
2007,05,30,15,48,23.70
2007,05,30,15,49,23.70
2007,05,30,15,50,23.80
2007,05,30,15,51,23.80
2007,05,30,15,52,23.70
2007,05,30,15,53,23.70
2007,05,30,15,54,23.70
2007,05,30,15,55,23.70
2007,05,30,15,56,23.70
2007,05,30,15,57,23.70
2007,05,30,15,58,23.60
2007,05,30,15,59,23.70
2007,05,30,16,00,23.70
2007,05,30,16,01,23.80
2007,05,30,16,02,23.90
2007,05,30,16,03,23.90
2007,05,30,16,04,23.90
2007,05,30,16,05,23.80
2007,05,30,16,06,23.80
2007,05,30,16,07,23.70
2007,05,30,16,08,23.70
2007,05,30,16,09,23.50
2007,05,30,16,10,23.40
2007,05,30,16,11,23.30
2007,05,30,16,12,23.30
2007,05,30,16,13,23.20
2007,05,30,16,14,23.30
2007,05,30,16,15,23.30
2007,05,30,16,16,23.30
2007,05,30,16,17,23.30
2007,05,30,16,18,23.40
2007,05,30,16,19,23.40
2007,05,30,16,20,23.60
2007,05,30,16,21,23.70
2007,05,30,16,22,24.00
2007,05,30,16,23,24.10
2007,05,30,16,24,24.20
2007,05,30,16,25,24.10
2007,05,30,16,26,24.10
2007,05,30,16,27,24.10
2007,05,30,16,28,24.10
2007,05,30,16,29,24.10
2007,05,30,16,30,24.10
2007,05,30,16,31,24.10
2007,05,30,16,32,24.10
2007,05,30,16,33,24.10
2007,05,30,16,34,24.20
2007,05,30,16,35,24.30
2007,05,30,16,36,24.40
2007,05,30,16,37,24.50
2007,05,30,16,38,24.50
2007,05,30,16,39,24.40
2007,05,30,16,40,24.30
2007,05,30,16,41,24.30
2007,05,30,16,42,24.30
2007,05,30,16,43,24.30
2007,05,30,16,44,24.50
2007,05,30,16,45,24.50
2007,05,30,16,46,24.60
2007,05,30,16,47,24.70
2007,05,30,16,48,24.70
2007,05,30,16,49,24.80
2007,05,30,16,50,24.90
2007,05,30,16,51,24.90
2007,05,30,16,52,24.90
2007,05,30,16,53,25.00
2007,05,30,16,54,25.10
2007,05,30,16,55,25.20
2007,05,30,16,56,25.30
2007,05,30,16,57,25.40
2007,05,30,16,58,25.40
2007,05,30,16,59,25.40
2007,05,30,17,00,25.50
2007,05,30,17,01,25.60
2007,05,30,17,02,25.70
2007,05,30,17,03,25.80
2007,05,30,17,04,25.80
2007,05,30,17,05,25.90
2007,05,30,17,06,26.00
2007,05,30,17,07,26.10
2007,05,30,17,08,26.10
2007,05,30,17,09,25.90
2007,05,30,17,10,25.80
2007,05,30,17,11,25.60
2007,05,30,17,12,25.60
2007,05,30,17,13,25.60
2007,05,30,17,14,25.50
2007,05,30,17,15,25.30
2007,05,30,17,16,25.20
2007,05,30,17,17,25.20
2007,05,30,17,18,25.10
2007,05,30,17,19,25.00
2007,05,30,17,20,25.00
2007,05,30,17,21,25.00